Location: Black Swamp Observatory
(41.3920°N, 84.1250°W)
Time: 11:53:35
(UTC-05:00)

Envisat - Visible Passes

Search period start: 03 December 2022 00:00
Search period end: 13 December 2022 00:00
Orbit: 763 x 765 km, 98.2° (Epoch: 03 December)

Date Brightness Start Highest point End Pass type
(mag) Time Alt. Az. Time Alt. Az. Time Alt. Az.
03 Dec 5.2 06:03:59 10° NNW 06:04:05 10° NNW 06:04:05 10° NNW visible
04 Dec 5.3 05:26:17 10° N 05:26:29 11° N 05:26:29 11° N visible
08 Dec 6.2 17:34:48 10° WSW 17:36:13 11° W 17:37:38 10° WNW visible
